Regional Weather Roundup
Issued by NWS

Home | Current Version | Previous Version | Text Only | Print | Product List | Glossary On
Versions: 1 2 3 4 5 6 7 8 9 10 11 12 13 14 15 16 17 18 19 20 21 22 23 24 25 26 27 28 29 30 31 32 33 34 35 36 37 38 39 40 41 42 43 44 45 46 47 48 49 50
000
ASUS45 KPSR 290110
RWRAZ

ARIZONA REGIONAL HOURLY WEATHER ROUNDUP
NATIONAL WEATHER SERVICE PHOENIX AZ
600 PM MST THU AUG 28 2014

NOTE: FAIR INDICATES FEW OR NO CLOUDS BELOW 12,000 FEET WITH NO
SIGNIFICANT WEATHER AND/OR OBSTRUCTIONS TO VISIBILITY.

AZZ001>003-036-290200-
NORTHWEST ARIZONA

CITY           SKY/WX    TMP DP  RH WIND       PRES   REMARKS
BULLHEAD CITY  SUNNY    106  32   8 N12       29.77F
KINGMAN        SUNNY     93  32  11 N7        30.01S
$$

AZZ004>008-015-016-018-290200-
NORTH CENTRAL ARIZONA

CITY           SKY/WX    TMP DP  RH WIND       PRES   REMARKS
GRAND CANYON   SUNNY     77  37  23 NW7       30.26S
WILLIAMS       SUNNY     73  37  27 N10       30.32S
PRESCOTT       MOSUNNY   83  40  21 N6        30.12F
FLAGSTAFF      SUNNY     73  39  29 E3        30.28S
PAYSON         SUNNY     82  45  26 W9        30.14S
PAGE           SUNNY     87  39  18 E9        30.06F
$$

AZZ009>014-017-290200-
NORTHEAST ARIZONA

CITY           SKY/WX    TMP DP  RH WIND       PRES   REMARKS
WINSLOW        SUNNY     84  41  21 NW5       30.12F
SAINT JOHNS    CLEAR     80  42  25 W9        30.15S
WINDOW ROCK    CLEAR     77  36  22 N10       30.23
SHOW LOW       FAIR      72  37  28 NW12      30.25S
$$

AZZ023-290200-
GREATER PHOENIX AREA

CITY           SKY/WX    TMP DP  RH WIND       PRES   REMARKS
PHOENIX        MOSUNNY  104  40  11 W9        29.77F
BUCKEYE          N/A     99  55  23 SE6       29.79S
GLENDALE       SUNNY    104  45  13 W5        29.79F HX 100
LUKE AFB       NOT AVBL
DEER VALLEY    SUNNY    102  40  12 N9        29.80F
SCOTTSDALE     SUNNY    102  40  12 VRB3      29.82S
MESA-GATEWAY   SUNNY    100  41  13 NW10      29.82
CHANDLER       MOSUNNY  102  45  14 SW7       29.80S
$$

AZZ027-028-290200-
SOUTHWEST MARICOPA COUNTY AND PINAL COUNTY

CITY           SKY/WX    TMP DP  RH WIND       PRES   REMARKS
CASA GRANDE    SUNNY    100  46  16 W6        29.83F
GILA BEND      CLEAR    104  39  11 E6        29.79F
$$

AZZ503-504-507>509-290200-
SOUTHEAST ARIZONA

CITY           SKY/WX    TMP DP  RH WIND       PRES   REMARKS
TUCSON         FAIR      96  47  18 NW7       29.92S
DAVIS-MONTHAN  SUNNY     94  51  22 NW10      29.91R
RYAN FIELD       N/A     97  45  16 NW13      29.91S
NOGALES        FAIR      87  48  25 W7        30.01S
SIERRA VISTA   PTCLDY    84  52  32 E3        30.08F
DOUGLAS        CLEAR     86  50  28 N6        30.03S
SAFFORD        CLEAR     93  41  16 W16       29.92S
$$

AZZ020-021-025-026-031-290200-
SOUTHWEST ARIZONA

CITY           SKY/WX    TMP DP  RH WIND       PRES   REMARKS
YUMA           SUNNY    109  31   7 N5        29.73S HX 101
$$

CAZ031-033-041-043-047-048-061-290200-
SOUTHERN CALIFORNIA

CITY           SKY/WX    TMP DP  RH WIND       PRES   REMARKS
DOWNTOWN L.A.  SUNNY     85  46  25 VRB5      29.86F
L.A. AIRPORT   MOSUNNY   79  53  40 W17       29.87F
SAN DIEGO      SUNNY     83  55  38 NW8       29.91F
BURBANK        SUNNY     95  37  13 W15       29.88F
ONTARIO        SUNNY     93  49  22 SW12      29.89S
RIVERSIDE      SUNNY     91  47  21 W13G20    29.88S
PALM SPRINGS   SUNNY    109  43  10 NW18G26   29.75F HX 104
EL CENTRO NAS  SUNNY    109  36   8 NE7       29.71F HX 102
IMPERIAL       SUNNY    109  36   8 N7        29.71F HX 102
BLYTHE         SUNNY    106  37   9 E6        29.75F HX 100
NEEDLES        SUNNY    107  31   7 NE5       29.79F HX 100
$$

NVZ020-UTZ003-290200-
SOUTHERN NEVADA-UTAH

CITY           SKY/WX    TMP DP  RH WIND       PRES   REMARKS
LAS VEGAS      SUNNY    101  30   8 S3        29.85F
SALT LAKE CITY MOSUNNY   83  36  18 NW3       30.09F
$$

NMZ009-TXZ055-290200-
NEW MEXICO-WEST TEXAS

CITY           SKY/WX    TMP DP  RH WIND       PRES   REMARKS
ALBUQUERQUE    PTCLDY    81  37  20 NW16      30.10S
EL PASO        PTCLDY    91  48  22 N5        29.97S
$$


........................KEY........................
SKY/WX - SKY CONDITION/WEATHER
TMP    - TEMPERATURE IN FAHRENHEIT
DP     - DEW POINT IN FAHRENHEIT
RH     - RELATIVE HUMIDITY IN PERCENT
WIND   - DIRECTION AND SPEED IN MILES PER HOUR (MPH)
VRB    - VARIABLE WIND DIRECTION
PRES   - MEAN SEA LEVEL PRESSURE IN INCHES OF MERCURY
         F - FALLING PRESSURE   R - RISING PRESSURE
         S - STEADY PRESSURE
VSB    - VISIBILITY IN MILES
HX     - HEAT INDEX IN FAHRENHEIT
WCI    - WIND CHILL INDEX IN FAHRENHEIT
TC     - TEMPERATURE IN CELSIUS WHICH IS ALSO KNOWN AS
         TEMPERATURE IN CENTIGRADE
AFB    - AIR FORCE BASE
         LUKE AFB IS LUKE AIR FORCE BASE
         DAVIS-MONTHAN IS DAVIS-MONTHAN AIR FORCE BASE
NAS    - NAVAL AIR STATION
         EL CENTRO NAS IS EL CENTRO NAVAL AIR STATION
N/A    - NOT AVAILABLE



USA.gov is the U.S. government's official web portal to all federal, state and local government web resources and services.